Location: ?????
(42.2640°N, 43.4211°E)
Time: 15:20:13
(UTC+00:00)

CZ-2C R/B - Pass Details

Date: 07 August 2020
Orbit: 668 x 784 km, 98.2° (Epoch: 20 September)

Event Time Altitude Azimuth Distance (km) Brightness Sun altitude
Rises 00:59:52 0° 16° (NNE) 3,022 6.5 -11.4°
Reaches altitude 10° 01:02:07 10° 19° (NNE) 2,103 5.6 -11.1°
Maximum altitude 01:06:40 66° 101° (ESE) 737 2.6 -10.4°
Drops below altitude 10° 01:11:15 10° 184° (S) 2,112 4.4 -9.7°
Sets 01:13:30 0° 187° (S) 3,034 5.2 -9.3°
